Back to catalog

CZ-6A DEB

AlivePO
NORAD 60988·DEBRIS·🇨🇳 China

Launched Aug 6, 2024 from Taiyuan Satellite Launch Center

Loading…

Next Passes (next 24 hours)

TLE

FreshSource: Space-Track

Epoch: Sep 13, 2026, 18:49 UTC

1 60988U 24140MP  26256.78440305  .00000358  00000-0  22630-3 0  9996
2 60988  89.0761 274.9722 0153445 358.7038   1.3719 13.96494849105074

Track CZ-6A DEB in real time with AllMySat

Download on the App Store